Previsão horária em Abergele

Hoje, 12 Abril, Segunda-feira

Tempo Temperatura Precipitação Vento Pressão Humidade
00:00 -1°C° 0 mm 2 m/s 761 mmHg 90%
01:00 -1°C° 0.1 mm 2 m/s 761 mmHg 92%
02:00 -1°C° 0.1 mm 2 m/s 761 mmHg 93%
03:00 -1°C° 0.1 mm 2 m/s 761 mmHg 94%
04:00 -1°C° 0 mm 2 m/s 762 mmHg 94%
05:00 -1°C° 0 mm 2 m/s 762 mmHg 94%
06:00 -1°C° 0 mm 2 m/s 762 mmHg 94%
07:00 +2°C° 0 mm 2 m/s 762 mmHg 83%
08:00 +4°C° 0 mm 2 m/s 763 mmHg 72%
09:00 +5°C° 0 mm 2 m/s 763 mmHg 61%
10:00 +6°C° 0 mm 2 m/s 763 mmHg 57%
11:00 +7°C° 0 mm 3 m/s 764 mmHg 52%
12:00 +7°C° 0 mm 3 m/s 764 mmHg 48%
13:00 +7°C° 0 mm 3 m/s 764 mmHg 50%
14:00 +7°C° 0 mm 3 m/s 764 mmHg 52%
15:00 +7°C° 0 mm 3 m/s 764 mmHg 54%
16:00 +7°C° 0 mm 3 m/s 764 mmHg 58%
17:00 +6°C° 0 mm 2 m/s 764 mmHg 63%
18:00 +5°C° 0 mm 2 m/s 764 mmHg 68%
19:00 +4°C° 0 mm 2 m/s 765 mmHg 73%
20:00 +3°C° 0 mm 2 m/s 765 mmHg 79%
21:00 +2°C° 0 mm 2 m/s 766 mmHg 85%
22:00 +1°C° 0 mm 2 m/s 766 mmHg 88%
23:00 +1°C° 0 mm 2 m/s 766 mmHg 90%

Amanhã, 13 Abril, Terça-feira

Tempo Temperatura Precipitação Vento Pressão Humidade
00:00 +1°C° 0 mm 2 m/s 766 mmHg 93%
01:00 +1°C° 0 mm 2 m/s 766 mmHg 93%
02:00 +1°C° 0 mm 2 m/s 766 mmHg 92%
03:00 +1°C° 0 mm 2 m/s 766 mmHg 92%
04:00 +1°C° 0 mm 2 m/s 766 mmHg 90%
05:00 +2°C° 0 mm 2 m/s 766 mmHg 87%
06:00 +3°C° 0 mm 2 m/s 766 mmHg 85%
07:00 +6°C° 0 mm 1 m/s 766 mmHg 78%
08:00 +7°C° 0 mm 1 m/s 766 mmHg 71%
09:00 +9°C° 0 mm 1 m/s 767 mmHg 63%
10:00 +9°C° 0.1 mm 1 m/s 767 mmHg 65%
11:00 +9°C° 0.1 mm 1 m/s 767 mmHg 67%
12:00 +8°C° 0.1 mm 2 m/s 767 mmHg 69%
13:00 +8°C° 0.1 mm 2 m/s 766 mmHg 71%
14:00 +8°C° 0.1 mm 2 m/s 766 mmHg 74%
15:00 +8°C° 0.1 mm 3 m/s 766 mmHg 77%
16:00 +8°C° 0 mm 2 m/s 766 mmHg 79%
17:00 +7°C° 0 mm 2 m/s 766 mmHg 80%
18:00 +7°C° 0 mm 2 m/s 766 mmHg 82%
19:00 +7°C° 0 mm 1 m/s 766 mmHg 86%
20:00 +5°C° 0 mm 1 m/s 766 mmHg 90%
21:00 +4°C° 0 mm 1 m/s 767 mmHg 94%
22:00 +3°C° 0 mm 1 m/s 767 mmHg 94%
23:00 +3°C° 0 mm 1 m/s 767 mmHg 94%

Depois de amanhã, 14 Abril, Quarta-feira

Tempo Temperatura Precipitação Vento Pressão Humidade
00:00 +3°C° 0 mm 1 m/s 767 mmHg 93%
01:00 +3°C° 0 mm 1 m/s 767 mmHg 93%
02:00 +3°C° 0 mm 1 m/s 767 mmHg 93%
03:00 +3°C° 0 mm 1 m/s 767 mmHg 92%
04:00 +3°C° 0 mm 1 m/s 767 mmHg 92%
05:00 +3°C° 0 mm 1 m/s 767 mmHg 91%
06:00 +3°C° 0 mm 1 m/s 767 mmHg 90%
07:00 +5°C° 0 mm 1 m/s 767 mmHg 83%
08:00 +7°C° 0 mm 1 m/s 767 mmHg 75%
09:00 +9°C° 0 mm 1 m/s 767 mmHg 67%
10:00 +10°C° 0 mm 1 m/s 767 mmHg 62%
11:00 +10°C° 0 mm 2 m/s 767 mmHg 58%
12:00 +12°C° 0 mm 2 m/s 767 mmHg 53%
13:00 +12°C° 0 mm 2 m/s 767 mmHg 53%
14:00 +12°C° 0 mm 2 m/s 766 mmHg 53%
15:00 +12°C° 0 mm 2 m/s 766 mmHg 53%
16:00 +10°C° 0 mm 2 m/s 766 mmHg 60%
17:00 +9°C° 0 mm 2 m/s 766 mmHg 66%
18:00 +8°C° 0 mm 2 m/s 766 mmHg 72%
19:00 +7°C° 0 mm 2 m/s 767 mmHg 77%
20:00 +5°C° 0 mm 2 m/s 767 mmHg 82%
21:00 +5°C° 0 mm 1 m/s 767 mmHg 87%
22:00 +3°C° 0 mm 2 m/s 767 mmHg 87%
23:00 +3°C° 0 mm 2 m/s 767 mmHg 86%

15 Abril, Quinta-feira

Tempo Temperatura Precipitação Vento Pressão Humidade
00:00 +3°C° 0 mm 2 m/s 767 mmHg 86%
01:00 +2°C° 0 mm 2 m/s 767 mmHg 86%
02:00 +2°C° 0 mm 2 m/s 767 mmHg 87%
03:00 +1°C° 0 mm 3 m/s 767 mmHg 88%
04:00 +1°C° 0 mm 3 m/s 767 mmHg 88%
05:00 +1°C° 0 mm 3 m/s 767 mmHg 87%
06:00 +1°C° 0 mm 3 m/s 767 mmHg 87%
07:00 +3°C° 0 mm 3 m/s 767 mmHg 79%
08:00 +5°C° 0 mm 3 m/s 767 mmHg 71%
09:00 +8°C° 0 mm 3 m/s 767 mmHg 62%
10:00 +9°C° 0 mm 3 m/s 767 mmHg 58%
11:00 +9°C° 0 mm 3 m/s 767 mmHg 53%
12:00 +10°C° 0 mm 3 m/s 766 mmHg 49%
13:00 +10°C° 0 mm 3 m/s 766 mmHg 48%
14:00 +10°C° 0 mm 3 m/s 766 mmHg 46%
15:00 +11°C° 0 mm 3 m/s 765 mmHg 45%
16:00 +10°C° 0 mm 3 m/s 765 mmHg 51%
17:00 +9°C° 0 mm 3 m/s 765 mmHg 57%
18:00 +8°C° 0 mm 3 m/s 765 mmHg 63%
19:00 +5°C° 0 mm 3 m/s 765 mmHg 70%
20:00 +4°C° 0 mm 3 m/s 766 mmHg 78%
21:00 +2°C° 0 mm 3 m/s 766 mmHg 85%
22:00 +1°C° 0 mm 3 m/s 766 mmHg 86%
23:00 +1°C° 0 mm 3 m/s 766 mmHg 86%

16 Abril, Sexta-feira

Tempo Temperatura Precipitação Vento Pressão Humidade
00:00 0°C° 0 mm 3 m/s 766 mmHg 87%
01:00 0°C° 0 mm 3 m/s 766 mmHg 89%
02:00 -1°C° 0 mm 3 m/s 766 mmHg 90%
03:00 -1°C° 0 mm 3 m/s 766 mmHg 92%
04:00 -1°C° 0 mm 3 m/s 766 mmHg 91%
05:00 -1°C° 0 mm 3 m/s 766 mmHg 91%
06:00 -1°C° 0 mm 3 m/s 766 mmHg 90%
07:00 +1°C° 0 mm 3 m/s 766 mmHg 78%
08:00 +3°C° 0 mm 3 m/s 766 mmHg 66%
09:00 +7°C° 0 mm 3 m/s 766 mmHg 54%
10:00 +8°C° 0 mm 3 m/s 766 mmHg 50%
11:00 +9°C° 0 mm 3 m/s 766 mmHg 46%
12:00 +10°C° 0 mm 3 m/s 766 mmHg 42%
13:00 +10°C° 0 mm 3 m/s 766 mmHg 42%
14:00 +10°C° 0 mm 3 m/s 765 mmHg 42%
15:00 +11°C° 0 mm 3 m/s 765 mmHg 43%
16:00 +10°C° 0 mm 3 m/s 765 mmHg 48%
17:00 +9°C° 0 mm 2 m/s 765 mmHg 54%
18:00 +9°C° 0 mm 2 m/s 765 mmHg 59%
19:00 +7°C° 0 mm 2 m/s 765 mmHg 64%
20:00 +5°C° 0 mm 2 m/s 765 mmHg 69%
21:00 +3°C° 0 mm 2 m/s 766 mmHg 74%
22:00 +3°C° 0 mm 2 m/s 765 mmHg 76%
23:00 +1°C° 0 mm 3 m/s 765 mmHg 79%

17 Abril, Sábado

Tempo Temperatura Precipitação Vento Pressão Humidade
00:00 +1°C° 0 mm 3 m/s 765 mmHg 82%
01:00 +1°C° 0 mm 3 m/s 765 mmHg 83%
02:00 0°C° 0 mm 3 m/s 765 mmHg 83%
03:00 0°C° 0 mm 3 m/s 765 mmHg 84%
04:00 0°C° 0 mm 3 m/s 764 mmHg 83%
05:00 0°C° 0 mm 3 m/s 764 mmHg 82%
06:00 0°C° 0 mm 3 m/s 764 mmHg 81%
07:00 +2°C° 0 mm 3 m/s 764 mmHg 72%
08:00 +4°C° 0 mm 3 m/s 764 mmHg 63%
09:00 +7°C° 0 mm 3 m/s 764 mmHg 54%
10:00 +8°C° 0 mm 3 m/s 763 mmHg 51%
11:00 +10°C° 0 mm 3 m/s 763 mmHg 48%
12:00 +11°C° 0 mm 3 m/s 763 mmHg 44%
13:00 +11°C° 0 mm 3 m/s 762 mmHg 46%
14:00 +12°C° 0 mm 2 m/s 762 mmHg 47%
15:00 +12°C° 0 mm 2 m/s 762 mmHg 48%
16:00 +10°C° 0 mm 2 m/s 762 mmHg 55%
17:00 +9°C° 0 mm 2 m/s 761 mmHg 61%
18:00 +8°C° 0 mm 2 m/s 761 mmHg 67%
19:00 +7°C° 0 mm 2 m/s 762 mmHg 72%
20:00 +6°C° 0 mm 2 m/s 762 mmHg 78%
21:00 +5°C° 0 mm 2 m/s 762 mmHg 83%
22:00 +4°C° 0 mm 2 m/s 761 mmHg 85%
23:00 +4°C° 0 mm 2 m/s 761 mmHg 87%
Mostrar mais